When you browse on this site, cookies collect data to enhance your experience and personalize the content and advertising you see.
Visit our Privacy Policy to learn more. By continuing to use the site, you agree to this use of cookies and data.

Hourly Weather Kitzbuhel

Today, 14 July, Tuesday

Time Temperature Precipitation Wind Pressure Humidity
00:00 +11°C° 0 mm 1 mps 678 mmHg 94%
01:00 +11°C° 0 mm 1 mps 678 mmHg 94%
02:00 +10°C° 0 mm 1 mps 678 mmHg 94%
03:00 +10°C° 0 mm 1 mps 678 mmHg 94%
04:00 +10°C° 0 mm 1 mps 677 mmHg 94%
05:00 +12°C° 0 mm 1 mps 678 mmHg 88%
06:00 +12°C° 0 mm 0 mps 678 mmHg 82%
07:00 +14°C° 0 mm 0 mps 678 mmHg 75%
08:00 +18°C° 0 mm 1 mps 678 mmHg 67%
09:00 +20°C° 0 mm 1 mps 679 mmHg 59%
10:00 +21°C° 0 mm 1 mps 679 mmHg 51%
11:00 +22°C° 0 mm 1 mps 678 mmHg 48%
12:00 +21°C° 0 mm 2 mps 678 mmHg 45%
13:00 +23°C° 0 mm 2 mps 678 mmHg 41%
14:00 +21°C° 0.1 mm 2 mps 678 mmHg 46%
15:00 +21°C° 0.1 mm 2 mps 677 mmHg 50%
16:00 +20°C° 0.1 mm 2 mps 677 mmHg 55%
17:00 +19°C° 0.6 mm 2 mps 677 mmHg 66%
18:00 +18°C° 0.6 mm 1 mps 676 mmHg 78%
19:00 +15°C° 0.6 mm 0 mps 676 mmHg 90%
20:00 +15°C° 0.2 mm 1 mps 676 mmHg 90%
21:00 +13°C° 0.2 mm 1 mps 676 mmHg 91%
22:00 +12°C° 0.2 mm 1 mps 676 mmHg 91%
23:00 +12°C° 0 mm 1 mps 676 mmHg 91%

Tomorrow, 15 July, Wednesday

Time Temperature Precipitation Wind Pressure Humidity
00:00 +11°C° 0 mm 1 mps 676 mmHg 92%
01:00 +11°C° 0 mm 1 mps 676 mmHg 92%
02:00 +11°C° 0 mm 1 mps 675 mmHg 92%
03:00 +11°C° 0 mm 1 mps 675 mmHg 91%
04:00 +11°C° 0 mm 1 mps 675 mmHg 91%
05:00 +12°C° 0.2 mm 1 mps 675 mmHg 90%
06:00 +13°C° 0.2 mm 1 mps 676 mmHg 89%
07:00 +14°C° 0.2 mm 0 mps 676 mmHg 88%
08:00 +14°C° 0.5 mm 0 mps 676 mmHg 87%
09:00 +15°C° 0.5 mm 0 mps 676 mmHg 87%
10:00 +16°C° 0.5 mm 0 mps 676 mmHg 86%
11:00 +17°C° 0.5 mm 0 mps 676 mmHg 81%
12:00 +18°C° 0.5 mm 0 mps 677 mmHg 76%
13:00 +19°C° 0.5 mm 0 mps 677 mmHg 72%
14:00 +20°C° 1 mm 1 mps 676 mmHg 77%
15:00 +19°C° 1 mm 1 mps 676 mmHg 82%
16:00 +19°C° 1 mm 1 mps 676 mmHg 86%
17:00 +18°C° 1.1 mm 1 mps 676 mmHg 90%
18:00 +15°C° 1.1 mm 1 mps 676 mmHg 94%
19:00 +14°C° 1.1 mm 1 mps 676 mmHg 97%
20:00 +14°C° 0.8 mm 1 mps 676 mmHg 97%
21:00 +13°C° 0.8 mm 0 mps 677 mmHg 97%
22:00 +12°C° 0.8 mm 0 mps 677 mmHg 97%
23:00 +12°C° 0.5 mm 0 mps 677 mmHg 98%

Day after tomorrow, 16 July, Thursday

Time Temperature Precipitation Wind Pressure Humidity
00:00 +12°C° 0.5 mm 0 mps 677 mmHg 98%
01:00 +11°C° 0.5 mm 0 mps 677 mmHg 98%
02:00 +11°C° 0.2 mm 0 mps 677 mmHg 98%
03:00 +11°C° 0.2 mm 0 mps 677 mmHg 98%
04:00 +11°C° 0.2 mm 0 mps 677 mmHg 97%
05:00 +11°C° 0.1 mm 0 mps 677 mmHg 97%
06:00 +11°C° 0.1 mm 0 mps 677 mmHg 97%
07:00 +12°C° 0.1 mm 0 mps 677 mmHg 97%
08:00 +12°C° 0.3 mm 0 mps 677 mmHg 97%
09:00 +13°C° 0.3 mm 1 mps 677 mmHg 97%
10:00 +13°C° 0.3 mm 1 mps 677 mmHg 97%
11:00 +14°C° 0.1 mm 1 mps 678 mmHg 92%
12:00 +15°C° 0.1 mm 1 mps 678 mmHg 87%
13:00 +16°C° 0.1 mm 1 mps 678 mmHg 82%
14:00 +16°C° 0.2 mm 1 mps 678 mmHg 80%
15:00 +16°C° 0.2 mm 2 mps 678 mmHg 78%
16:00 +17°C° 0.2 mm 2 mps 678 mmHg 76%
17:00 +16°C° 0.4 mm 2 mps 678 mmHg 83%
18:00 +14°C° 0.4 mm 1 mps 678 mmHg 91%
19:00 +13°C° 0.4 mm 1 mps 677 mmHg 98%
20:00 +13°C° 0.3 mm 1 mps 677 mmHg 98%
21:00 +13°C° 0.3 mm 1 mps 678 mmHg 98%
22:00 +11°C° 0.3 mm 0 mps 678 mmHg 98%
23:00 +11°C° 0.4 mm 0 mps 677 mmHg 98%

17 July, Friday

Time Temperature Precipitation Wind Pressure Humidity
00:00 +11°C° 0.4 mm 0 mps 677 mmHg 98%
01:00 +11°C° 0.4 mm 0 mps 677 mmHg 98%
02:00 +11°C° 1.1 mm 0 mps 677 mmHg 98%
03:00 +11°C° 1.1 mm 0 mps 676 mmHg 99%
04:00 +11°C° 1.1 mm 0 mps 676 mmHg 99%
05:00 +12°C° 2 mm 1 mps 676 mmHg 99%
06:00 +12°C° 2 mm 1 mps 676 mmHg 99%
07:00 +12°C° 2 mm 1 mps 676 mmHg 99%
08:00 +12°C° 1 mm 1 mps 677 mmHg 99%
09:00 +12°C° 1 mm 1 mps 677 mmHg 98%
10:00 +11°C° 1 mm 0 mps 677 mmHg 98%
11:00 +12°C° 0.4 mm 0 mps 677 mmHg 97%
12:00 +13°C° 0.4 mm 1 mps 677 mmHg 96%
13:00 +14°C° 0.4 mm 1 mps 677 mmHg 95%
14:00 +14°C° 0.5 mm 1 mps 677 mmHg 93%
15:00 +15°C° 0.5 mm 1 mps 677 mmHg 91%
16:00 +15°C° 0.5 mm 1 mps 677 mmHg 90%
17:00 +15°C° 0.4 mm 1 mps 677 mmHg 91%
18:00 +15°C° 0.4 mm 1 mps 677 mmHg 93%
19:00 +14°C° 0.4 mm 1 mps 677 mmHg 94%
20:00 +13°C° 0.1 mm 1 mps 677 mmHg 94%
21:00 +13°C° 0.1 mm 1 mps 678 mmHg 94%
22:00 +12°C° 0.1 mm 1 mps 678 mmHg 95%
23:00 +12°C° 0.1 mm 1 mps 678 mmHg 95%

18 July, Saturday

Time Temperature Precipitation Wind Pressure Humidity
00:00 +12°C° 0.1 mm 1 mps 678 mmHg 96%
01:00 +11°C° 0.1 mm 1 mps 678 mmHg 96%
02:00 +11°C° 0.1 mm 1 mps 677 mmHg 96%
03:00 +11°C° 0.1 mm 1 mps 677 mmHg 97%
04:00 +11°C° 0.1 mm 1 mps 677 mmHg 97%
05:00 +11°C° 0.1 mm 1 mps 677 mmHg 96%
06:00 +12°C° 0.1 mm 1 mps 678 mmHg 95%
07:00 +13°C° 0.1 mm 1 mps 678 mmHg 95%
08:00 +14°C° 0.4 mm 1 mps 678 mmHg 91%
09:00 +15°C° 0.4 mm 1 mps 678 mmHg 87%
10:00 +16°C° 0.4 mm 1 mps 678 mmHg 83%
11:00 +18°C° 0.3 mm 1 mps 678 mmHg 78%
12:00 +19°C° 0.3 mm 1 mps 678 mmHg 74%
13:00 +20°C° 0.3 mm 1 mps 678 mmHg 69%
14:00 +19°C° 0.2 mm 2 mps 678 mmHg 65%
15:00 +20°C° 0.2 mm 2 mps 678 mmHg 62%
16:00 +20°C° 0.2 mm 2 mps 678 mmHg 59%
17:00 +19°C° 0.1 mm 2 mps 678 mmHg 67%
18:00 +18°C° 0.1 mm 1 mps 678 mmHg 76%
19:00 +16°C° 0.1 mm 1 mps 677 mmHg 85%
20:00 +15°C° 0 mm 1 mps 677 mmHg 88%
21:00 +13°C° 0 mm 1 mps 677 mmHg 91%
22:00 +11°C° 0 mm 1 mps 678 mmHg 94%
23:00 +11°C° 0 mm 1 mps 677 mmHg 94%

19 July, Sunday

Time Temperature Precipitation Wind Pressure Humidity
00:00 +11°C° 0 mm 1 mps 677 mmHg 94%
01:00 +11°C° 0 mm 1 mps 677 mmHg 94%
02:00 +10°C° 0 mm 1 mps 677 mmHg 93%
03:00 +10°C° 0 mm 1 mps 677 mmHg 93%
04:00 +10°C° 0 mm 1 mps 677 mmHg 92%
05:00 +12°C° 0 mm 1 mps 677 mmHg 88%
06:00 +13°C° 0 mm 1 mps 677 mmHg 85%
07:00 +14°C° 0 mm 0 mps 678 mmHg 81%
08:00 +18°C° 0 mm 1 mps 678 mmHg 71%
09:00 +20°C° 0 mm 1 mps 679 mmHg 61%
10:00 +23°C° 0 mm 1 mps 679 mmHg 50%
11:00 +23°C° 0 mm 1 mps 679 mmHg 47%
12:00 +24°C° 0 mm 1 mps 679 mmHg 44%
13:00 +25°C° 0 mm 2 mps 679 mmHg 41%
14:00 +25°C° 0 mm 2 mps 679 mmHg 43%
15:00 +24°C° 0 mm 2 mps 679 mmHg 45%
16:00 +24°C° 0 mm 2 mps 678 mmHg 47%
17:00 +23°C° 0 mm 2 mps 678 mmHg 58%
18:00 +21°C° 0 mm 1 mps 678 mmHg 69%
19:00 +20°C° 0 mm 1 mps 678 mmHg 80%
20:00 +18°C° 0.1 mm 1 mps 678 mmHg 84%
21:00 +15°C° 0.1 mm 1 mps 678 mmHg 88%
22:00 +14°C° 0.1 mm 1 mps 678 mmHg 92%
23:00 +13°C° 0 mm 1 mps 678 mmHg 93%
Show more